sat.trackr.live / text

‹ back to catalog

FRONTIERSAT

NORAD 69015 · 2026-100AM

PAYLOAD ACTIVE UNKNOWN

§ Identity

Operator
Country
CA
Launch date
2026-05-03
Launch site
AFWTR
Launch vehicle
Mass (kg)
RCS (m²)

External: N2YO · Heavens-Above · Gunter

§ Orbital elements

Epoch: 2026-05-25T04:09:25.908192Z

Period
94.66 min
Inclination
97.4029°
Eccentricity
0.0010096
Mean motion
15.21254019 rev/d
Perigee alt
495.1 km
Apogee alt
509.0 km
Semi-major
6,880.2 km
B*
3.5975e-4
RAAN
43.4198°
Arg perigee
117.4372°
Mean anomaly
242.7891°
Rev number
332

§ Raw data

FRONTIERSAT1 69015U 26100AM  26145.17321653  .00007981  00000+0  35975-3 0  99922 69015  97.4029  43.4198 0010096 117.4372 242.7891 15.21254019  3325

JSON: /api/v1/satellites/69015 · /tle

For live sub-satellite position, see the globe view (requires WebGL).

§ Visibility from observer

Set your observer location to see the next 7 days of passes ≥ 10°. The values pass through the URL so the page stays shareable.

No JS? Fill the form by hand. The geolocation button needs JavaScript.

§ Radio — SatNOGS DB

ModeDescriptionDownlinkUplink
FSK AX.100 Mode 5 Mode U - GFSK9k6 - Downlink 436.150 MHz

1 transmitter · refreshed weekly from db.satnogs.org